WEOS

operational
NORAD ID: 27599 Int'l Des: 2002-056 Owner: CHIBA Country: J
LEOCIRCULARRETROGRADESSO

WEOSについて

説明を読み込み中...

リアルタイム位置

3D地球を読み込み中...

次回通過

高度履歴

Altitude vs Time

uPlot chart will show altitude changes over time

軌道要素

1 27599U 02056C 26062.48598051 .00000255 00000-0 11463-3 0 9991
2 27599 98.8041 28.8280 0008539 261.8718 98.1495 14.30799996211232
Epoch: Mar 3, 2026 • Age: 24 hours

現在のステータス

高度 803.2 km
速度 7.45 km/s
衛星直下点 53.28°N, 139.3°W
打ち上げ日 Dec 14, 2002
運用期間 23.2 years
タイプ other

技術仕様

分類 Payload
質量 50.00 kg
乾燥質量 50.00 kg
総質量 50.00 kg
長さ 0.50 m
直径 0.50 m
スパン 3.50 m
形状 Box + Ant
製造者 CHIBA
フェーズステータス In Orbit
所有者/国 CHIBA/J

大規模コンステレーション

Loading constellations...